TimeCET,TemperatureF,Dew PointF,Humidity,Sea Level PressureIn,VisibilityMPH,Wind Direction,Wind SpeedMPH,Gust SpeedMPH,PrecipitationIn,Events,Conditions,WindDirDegrees,DateUTC
1:00 AM,53,48,79,30.04,,WSW,3.5,,,,,240,2013-03-25 00:00:00
5:00 AM,44.6,44.6,100,30.01,-9999.0,Calm,Calm,-,N/A,,Clear,0,2013-03-25 04:00:00
5:30 AM,44.6,44.6,100,30.01,-9999.0,Variable,1.2,-,N/A,,Clear,0,2013-03-25 04:30:00
6:00 AM,44.6,44.6,100,30.01,-9999.0,Variable,1.2,-,N/A,,Clear,0,2013-03-25 05:00:00
6:30 AM,44.6,44.6,100,30.01,-9999.0,ENE,3.5,-,N/A,,Clear,70,2013-03-25 05:30:00
7:00 AM,45,45,100,30.04,12,ENE,2.3,,,,,60,2013-03-25 06:00:00
7:00 AM,44.6,44.6,100,30.04,-9999.0,Calm,Calm,-,N/A,,Clear,0,2013-03-25 06:00:00
7:30 AM,44.6,44.6,100,30.04,-9999.0,ENE,3.5,-,N/A,,Clear,70,2013-03-25 06:30:00
8:00 AM,44.6,44.6,100,30.04,-9999.0,Variable,1.2,-,N/A,,Clear,0,2013-03-25 07:00:00
9:00 AM,50.0,50.0,100,30.04,6.2,Calm,Calm,-,N/A,,Scattered Clouds,0,2013-03-25 08:00:00
9:30 AM,51.8,51.8,100,30.04,6.2,Calm,Calm,-,N/A,,Scattered Clouds,0,2013-03-25 08:30:00
10:00 AM,55.4,53.6,94,30.06,6.2,Calm,Calm,-,N/A,,Mostly Cloudy,0,2013-03-25 09:00:00
10:32 AM,55.4,53.6,94,30.06,2.5,Variable,2.3,-,N/A,,Light Drizzle,0,2013-03-25 09:32:00
10:44 AM,55.4,55.4,100,30.06,3.7,Variable,2.3,-,N/A,,Light Drizzle,0,2013-03-25 09:44:00
11:00 AM,55.4,55.4,100,30.06,5.0,Variable,1.2,-,N/A,,Mostly Cloudy,0,2013-03-25 10:00:00
11:19 AM,55.4,55.4,100,30.06,1.9,SSW,4.6,-,N/A,,Drizzle,200,2013-03-25 10:19:00
11:30 AM,55.4,55.4,100,30.06,1.9,SSW,5.8,-,N/A,,Drizzle,200,2013-03-25 10:30:00
12:00 PM,57.2,57.2,100,30.06,5.0,South,5.8,-,N/A,,Light Drizzle,190,2013-03-25 11:00:00
12:30 PM,57.2,57.2,100,30.06,5.6,South,9.2,-,N/A,,Mostly Cloudy,180,2013-03-25 11:30:00
1:00 PM,59,58,94,30.06,11,South,10.4,,,Rain,Light Drizzle,190,2013-03-25 12:00:00
1:00 PM,57.2,57.2,100,30.04,6.2,South,9.2,-,N/A,,Mostly Cloudy,180,2013-03-25 12:00:00
1:30 PM,59.0,55.4,88,30.04,6.2,SW,12.7,-,N/A,,Mostly Cloudy,230,2013-03-25 12:30:00
2:00 PM,59.0,53.6,82,30.04,6.2,SW,13.8,-,N/A,,Mostly Cloudy,230,2013-03-25 13:00:00
2:30 PM,60.8,53.6,77,30.04,6.2,WSW,17.3,-,N/A,,Mostly Cloudy,240,2013-03-25 13:30:00
3:00 PM,60.8,53.6,77,30.04,6.2,WSW,15.0,-,N/A,,Mostly Cloudy,240,2013-03-25 14:00:00
3:30 PM,62.6,53.6,72,30.01,6.2,SW,18.4,-,N/A,,Scattered Clouds,230,2013-03-25 14:30:00
4:00 PM,60.8,53.6,77,30.04,6.2,SW,17.3,-,N/A,,Scattered Clouds,230,2013-03-25 15:00:00
4:30 PM,60.8,55.4,82,30.01,6.2,WSW,15.0,-,N/A,,Scattered Clouds,240,2013-03-25 15:30:00
5:00 PM,62.6,55.4,77,30.01,6.2,WSW,15.0,-,N/A,,Scattered Clouds,240,2013-03-25 16:00:00
5:30 PM,62.6,55.4,77,30.01,6.2,SW,17.3,-,N/A,,Scattered Clouds,230,2013-03-25 16:30:00
6:00 PM,62.6,53.6,72,30.01,6.2,SW,16.1,-,N/A,,Scattered Clouds,230,2013-03-25 17:00:00
6:30 PM,60.8,55.4,82,30.01,6.2,WSW,12.7,-,N/A,,Scattered Clouds,240,2013-03-25 17:30:00
7:00 PM,61,55,76,30.01,16,SW,11.5,,,,Partly Cloudy,230,2013-03-25 18:00:00
7:00 PM,60.8,55.4,82,30.01,6.2,SW,11.5,-,N/A,,Scattered Clouds,230,2013-03-25 18:00:00
7:30 PM,59.0,55.4,88,30.01,6.2,SW,11.5,-,N/A,,Scattered Clouds,230,2013-03-25 18:30:00
8:00 PM,59.0,55.4,88,30.01,6.2,SW,12.7,-,N/A,,Scattered Clouds,230,2013-03-25 19:00:00
8:30 PM,59.0,55.4,88,30.01,6.2,SW,10.4,-,N/A,,Scattered Clouds,230,2013-03-25 19:30:00
9:00 PM,59.0,55.4,88,30.01,6.2,SW,11.5,-,N/A,,Scattered Clouds,230,2013-03-25 20:00:00
9:30 PM,57.2,55.4,94,30.01,6.2,SW,9.2,-,N/A,,Scattered Clouds,230,2013-03-25 20:30:00
10:00 PM,57.2,55.4,94,30.01,6.2,SW,8.1,-,N/A,,Partly Cloudy,230,2013-03-25 21:00:00
10:30 PM,57.2,55.4,94,30.01,6.2,SW,9.2,-,N/A,,Partly Cloudy,220,2013-03-25 21:30:00
11:00 PM,55.4,55.4,100,30.01,-9999.0,SW,4.6,-,N/A,,Clear,230,2013-03-25 22:00:00